Retour au catalogue

STARLINK-5867

ActifCommunicationsVLEO
NORAD 55918·PAYLOAD·🇺🇸 United States

Lancé Mar 17, 2023 depuis Vandenberg Space Force Base

Loading…

Prochains Passages (prochaines 24 heures)

TLE

FraisSource: CelesTrak SupGP

Époque: Sep 15, 2026, 01:31 UTC

1 55918C 23037E   26258.06368056 -.00011265  00000+0 -94410-3 0  2585
2 55918  70.0019 187.0773 0002747 271.4068 356.2287 14.98334661    17

Suivez STARLINK-5867 en temps réel avec AllMySat

Download on the App Store